This is the latest recevied weather packets stored in our database for station/object SP6KBU-12. If no packets are shown the sender has not sent any weather packets the latest 10 day(s).
| Time | Temp. | Humidity | Pressure | Rain* | Wind** | Luminosity | Snow |
|---|---|---|---|---|---|---|---|
| 1777540510 | 12.78° C | 28% | 1032.8 hPa | - | - | - | - |
| 1777539609 | 11.67° C | 29% | 1032.9 hPa | - | - | - | - |
| 1777538709 | 11.11° C | 29% | 1032.8 hPa | - | - | - | - |
| 1777537809 | 11.11° C | 29% | 1032.7 hPa | - | - | - | - |
| 1777536909 | 10.56° C | 29% | 1032.8 hPa | - | - | - | - |
| 1777536009 | 10.56° C | 29% | 1032.7 hPa | - | - | - | - |
| 1777535109 | 10° C | 31% | 1032.7 hPa | - | - | - | - |
| 1777534209 | 10° C | 31% | 1032.8 hPa | - | - | - | - |
| 1777533309 | 9.44° C | 32% | 1032.7 hPa | - | - | - | - |
| 1777532409 | 9.44° C | 33% | 1032.8 hPa | - | - | - | - |
| 1777531509 | 8.33° C | 34% | 1032.9 hPa | - | - | - | - |
| 1777530609 | 8.33° C | 35% | 1032.8 hPa | - | - | - | - |
| 1777529709 | 7.78° C | 35% | 1032.7 hPa | - | - | - | - |
| 1777528808 | 6.67° C | 36% | 1032.7 hPa | - | - | - | - |
| 1777527906 | 6.11° C | 38% | 1032.7 hPa | - | - | - | - |
| 1777527006 | 5° C | 38% | 1032.6 hPa | - | - | - | - |
| 1777526106 | 4.44° C | 39% | 1032.4 hPa | - | - | - | - |
| 1777525219 | 3.89° C | 39% | 1032.4 hPa | - | - | - | - |
| 1777525206 | 3.89° C | 39% | 1032.4 hPa | - | - | - | - |
| 1777524306 | 3.33° C | 40% | 1032.3 hPa | - | - | - | - |
| 1777523404 | 2.78° C | 40% | 1032.2 hPa | - | - | - | - |
| 1777522504 | 2.78° C | 41% | 1032.2 hPa | - | - | - | - |
| 1777521604 | 2.22° C | 41% | 1032.2 hPa | - | - | - | - |
| 1777520704 | 2.22° C | 42% | 1032.2 hPa | - | - | - | - |
| 1777519804 | 2.22° C | 42% | 1032.2 hPa | - | - | - | - |
* Rain since midnight (hover to see other rain measurements)
** Current wind speed in m/s (hover to see current wind gust speed)